Volver al catálogo

CZ-3C DEB

ActivoHEO
NORAD 48545·DEBRIS·🇨🇳 China

Lanzado Oct 31, 2010 desde Xichang Satellite Launch Center

Loading…

Próximos Pases (próximas 24 horas)

TLE

ActualizadoSource: Space-Track

Época: Sep 14, 2026, 02:34 UTC

1 48545U 10057BQ  26257.10738515  .00034032  00000-0  89764-2 0  9999
2 48545  18.0097 242.2782 5556447  17.5558 355.7644  4.69657032131446

Sigue CZ-3C DEB en tiempo real con AllMySat

Download on the App Store